This is the latest recevied weather packets stored in our database for station/object NK2J. If no packets are shown the sender has not sent any weather packets the latest 10 day(s).
| Time | Temp. | Humidity | Pressure | Rain* | Wind** | Luminosity | Snow |
|---|---|---|---|---|---|---|---|
| 1777746006 | 31.67° C | 21% | 1016.1 hPa | 0 mm | - | 740 W/m² | - |
| 1777745704 | 31.11° C | 22% | 1016.3 hPa | 0 mm | - | 739 W/m² | - |
| 1777745402 | 30.56° C | 23% | 1016.1 hPa | 0 mm | - | 732 W/m² | - |
| 1777745099 | 30.56° C | 22% | 1016.3 hPa | 0 mm | - | 727 W/m² | - |
| 1777744795 | 30.56° C | 23% | 1016.3 hPa | 0 mm | - | 720 W/m² | - |
| 1777744489 | 30° C | 24% | 1016.4 hPa | 0 mm | - | 714 W/m² | - |
| 1777744186 | 30° C | 24% | 1016.5 hPa | 0 mm | - | 707 W/m² | - |
| 1777743883 | 30° C | 24% | 1016.4 hPa | 0 mm | - | 701 W/m² | - |
| 1777743580 | 30.56° C | 24% | 1016.5 hPa | 0 mm | - | 692 W/m² | - |
| 1777743276 | 29.44° C | 25% | 1016.4 hPa | 0 mm | - | 684 W/m² | - |
| 1777742975 | 29.44° C | 29% | 1016.4 hPa | 0 mm | - | 675 W/m² | - |
| 1777742672 | 30° C | 24% | 1016.6 hPa | 0 mm | - | 666 W/m² | - |
| 1777742368 | 29.44° C | 25% | 1016.7 hPa | 0 mm | - | 656 W/m² | - |
| 1777742064 | 29.44° C | 25% | 1016.7 hPa | 0 mm | - | 647 W/m² | - |
| 1777741762 | 29.44° C | 28% | 1016.6 hPa | 0 mm | - | 636 W/m² | - |
| 1777741458 | 29.44° C | 27% | 1016.6 hPa | 0 mm | - | 625 W/m² | - |
| 1777741154 | 29.44° C | 27% | 1016.6 hPa | 0 mm | - | 615 W/m² | - |
| 1777740851 | 30° C | 27% | 1016.6 hPa | 0 mm | - | 603 W/m² | - |
| 1777740548 | 28.89° C | 27% | 1016.4 hPa | 0 mm | - | 592 W/m² | - |
| 1777740240 | 28.89° C | 27% | 1016.6 hPa | 0 mm | - | 582 W/m² | - |
| 1777739936 | 28.33° C | 27% | 1016.6 hPa | 0 mm | - | 571 W/m² | - |
| 1777739632 | 28.89° C | 26% | 1016.4 hPa | 0 mm | - | 559 W/m² | - |
| 1777739330 | 28.33° C | 27% | 1016.4 hPa | 0 mm | - | 547 W/m² | - |
| 1777739026 | 28.89° C | 28% | 1016.5 hPa | 0 mm | - | 533 W/m² | - |
| 1777738723 | 28.33° C | 29% | 1016.5 hPa | 0 mm | - | 521 W/m² | - |
* Rain latest hour (hover to see other rain measurements)
** Current wind speed in m/s (hover to see current wind gust speed)